RYR2868 ENTO-EVRA

Flight info

Callsign RYR2868
Flight time 1h 17m
Altitude 37000
Route VATEX P609 KSD DCT DEPEX DCT RASEL L199 MILTA Y130 LAPSA
Aircraft B38M/M-SDE1FGHILORVWXY/HB1

Departure

Time 2026-05-08 17:25
Airport Sandefjord Airport, Torp (ENTO)

Arrival

Time 2026-05-08 18:42
Airport Riga International Airport (EVRA)
Time Latitude Longitude Altitude Speed Heading
2026-05-08 16:19 59.18009 10.25114 281 ft 0 kts 179°
2026-05-08 17:08 59.18033 10.25111 281 ft 4 kts 175°
2026-05-08 17:08 59.18055 10.25105 288 ft 4 kts 150°
2026-05-08 17:09 59.18066 10.25070 281 ft 4 kts 92°
2026-05-08 17:09 59.18066 10.25025 281 ft 1 kts 89°
2026-05-08 17:09 59.18065 10.25024 281 ft 0 kts 89°
2026-05-08 17:16 59.18065 10.25026 281 ft 1 kts 89°
2026-05-08 17:17 59.18066 10.25055 281 ft 3 kts 89°
2026-05-08 17:17 59.18066 10.25118 281 ft 6 kts 91°
2026-05-08 17:17 59.18065 10.25215 281 ft 8 kts 90°
2026-05-08 17:17 59.18065 10.25344 281 ft 11 kts 90°
2026-05-08 17:18 59.18066 10.25482 281 ft 8 kts 79°
2026-05-08 17:18 59.18111 10.25561 281 ft 10 kts 39°
2026-05-08 17:18 59.18166 10.25674 281 ft 12 kts 48°
2026-05-08 17:18 59.18228 10.25805 281 ft 14 kts 47°
2026-05-08 17:19 59.18272 10.25935 280 ft 10 kts 78°
2026-05-08 17:19 59.18276 10.26082 281 ft 12 kts 88°
2026-05-08 17:19 59.18286 10.26213 281 ft 8 kts 55°
2026-05-08 17:19 59.18342 10.26245 281 ft 10 kts
2026-05-08 17:20 59.18417 10.26243 281 ft 12 kts 359°
2026-05-08 17:20 59.18508 10.26242 281 ft 14 kts 360°
2026-05-08 17:20 59.18614 10.26239 281 ft 16 kts 359°
2026-05-08 17:20 59.18735 10.26237 283 ft 18 kts 359°
2026-05-08 17:21 59.18869 10.26233 281 ft 21 kts 359°
2026-05-08 17:21 59.19020 10.26230 281 ft 23 kts 359°
2026-05-08 17:21 59.19186 10.26226 281 ft 25 kts 359°
2026-05-08 17:21 59.19356 10.26222 281 ft 22 kts 359°
2026-05-08 17:22 59.19462 10.26220 281 ft 23 kts 359°
2026-05-08 17:22 59.19612 10.26217 284 ft 16 kts 359°
2026-05-08 17:22 59.19721 10.26209 281 ft 12 kts 348°
2026-05-08 17:22 59.19787 10.26105 283 ft 13 kts 309°
2026-05-08 17:23 59.19849 10.25954 281 ft 14 kts 307°
2026-05-08 17:23 59.19845 10.25848 280 ft 8 kts 208°
2026-05-08 17:23 59.19786 10.25835 280 ft 9 kts 180°
2026-05-08 17:23 59.19748 10.25836 281 ft 0 kts 179°
2026-05-08 17:24 59.19747 10.25836 281 ft 1 kts 179°
2026-05-08 17:24 59.19674 10.25838 282 ft 32 kts 179°
2026-05-08 17:24 59.19202 10.25849 281 ft 103 kts 179°
2026-05-08 17:24 59.18275 10.25869 315 ft 158 kts 179°
2026-05-08 17:25 59.17145 10.25919 1031 ft 163 kts 180°
2026-05-08 17:25 59.15984 10.25945 1899 ft 168 kts 180°
2026-05-08 17:25 59.14828 10.25972 2724 ft 167 kts 180°
2026-05-08 17:25 59.13648 10.25990 3475 ft 172 kts 180°
2026-05-08 17:26 59.12440 10.26017 3916 ft 176 kts 180°
2026-05-08 17:26 59.11189 10.26055 4115 ft 190 kts 176°
2026-05-08 17:26 59.09911 10.27151 4572 ft 220 kts 135°
2026-05-08 17:26 59.09219 10.29976 5127 ft 248 kts 96°
2026-05-08 17:27 59.09543 10.33346 5896 ft 264 kts 70°
2026-05-08 17:27 59.10149 10.36811 6684 ft 276 kts 75°
2026-05-08 17:27 59.10703 10.40402 7748 ft 277 kts 75°
2026-05-08 17:27 59.11259 10.43993 8668 ft 284 kts 75°
2026-05-08 17:28 59.11831 10.47706 9624 ft 289 kts 75°
2026-05-08 17:28 59.12415 10.51498 10474 ft 296 kts 75°
2026-05-08 17:28 59.13014 10.55434 11073 ft 310 kts 75°
2026-05-08 17:28 59.13638 10.59591 11489 ft 328 kts 75°
2026-05-08 17:29 59.14292 10.63950 12023 ft 342 kts 75°
2026-05-08 17:29 59.14966 10.68433 12817 ft 345 kts 74°
2026-05-08 17:29 59.15654 10.72945 13613 ft 351 kts 74°
2026-05-08 17:29 59.16341 10.77482 14305 ft 355 kts 73°
2026-05-08 17:30 59.17048 10.82136 14993 ft 359 kts 73°
2026-05-08 17:30 59.17629 10.86895 15657 ft 363 kts 85°
2026-05-08 17:30 59.17481 10.91798 16330 ft 365 kts 103°
2026-05-08 17:30 59.16993 10.96687 16951 ft 370 kts 101°
2026-05-08 17:31 59.16560 11.01670 17608 ft 374 kts 101°
2026-05-08 17:31 59.16135 11.06695 18246 ft 378 kts 100°
2026-05-08 17:31 59.15712 11.11772 18817 ft 382 kts 100°
2026-05-08 17:31 59.15292 11.16840 19349 ft 385 kts 100°
2026-05-08 17:32 59.14861 11.22021 19882 ft 389 kts 100°
2026-05-08 17:32 59.14425 11.27254 20405 ft 392 kts 100°
2026-05-08 17:32 59.13985 11.32518 20939 ft 395 kts 100°
2026-05-08 17:32 59.13539 11.37816 21438 ft 399 kts 100°
2026-05-08 17:33 59.13086 11.43161 21957 ft 402 kts 101°
2026-05-08 17:33 59.12627 11.48565 22464 ft 405 kts 101°
2026-05-08 17:33 59.12163 11.53987 22978 ft 408 kts 101°
2026-05-08 17:33 59.11691 11.59488 23476 ft 412 kts 101°
2026-05-08 17:34 59.11213 11.65021 23944 ft 415 kts 101°
2026-05-08 17:34 59.10732 11.70568 24377 ft 418 kts 101°
2026-05-08 17:34 59.10244 11.76158 24830 ft 420 kts 101°
2026-05-08 17:34 59.09758 11.81706 25242 ft 422 kts 101°
2026-05-08 17:35 59.09260 11.87355 25676 ft 425 kts 101°
2026-05-08 17:35 59.08756 11.93030 26115 ft 427 kts 101°
2026-05-08 17:35 59.08248 11.98740 26534 ft 429 kts 101°
2026-05-08 17:35 59.07733 12.04487 26936 ft 432 kts 101°
2026-05-08 17:36 59.07213 12.10255 27346 ft 434 kts 101°
2026-05-08 17:36 59.06690 12.16036 27752 ft 436 kts 101°
2026-05-08 17:36 59.06171 12.21748 28142 ft 438 kts 101°
2026-05-08 17:36 59.05632 12.27641 28523 ft 441 kts 101°
2026-05-08 17:37 59.05092 12.33519 28896 ft 443 kts 101°
2026-05-08 17:37 59.04545 12.39437 29283 ft 445 kts 101°
2026-05-08 17:37 59.03993 12.45369 29666 ft 447 kts 101°
2026-05-08 17:37 59.03435 12.51348 29999 ft 450 kts 101°
2026-05-08 17:38 59.02873 12.57337 30353 ft 452 kts 101°
2026-05-08 17:38 59.02304 12.63367 30650 ft 454 kts 101°
2026-05-08 17:38 59.01729 12.69415 30973 ft 455 kts 101°
2026-05-08 17:38 59.01150 12.75390 31260 ft 457 kts 103°
2026-05-08 17:39 59.00382 12.81378 31539 ft 458 kts 105°
2026-05-08 17:39 58.99608 12.87395 31825 ft 460 kts 105°
2026-05-08 17:39 58.98843 12.93434 32130 ft 461 kts 104°
2026-05-08 17:39 58.98078 12.99487 32399 ft 463 kts 104°
2026-05-08 17:40 58.97308 13.05572 32675 ft 465 kts 104°
2026-05-08 17:40 58.96534 13.11659 32977 ft 466 kts 104°
2026-05-08 17:40 58.95755 13.17758 33291 ft 466 kts 104°
2026-05-08 17:40 58.94976 13.23843 33663 ft 465 kts 104°
2026-05-08 17:41 58.94196 13.29907 34066 ft 464 kts 104°
2026-05-08 17:41 58.93413 13.35967 34429 ft 462 kts 104°
2026-05-08 17:41 58.92631 13.41993 34729 ft 462 kts 104°
2026-05-08 17:41 58.91845 13.48031 34968 ft 462 kts 105°
2026-05-08 17:42 58.91054 13.54076 35223 ft 463 kts 105°
2026-05-08 17:42 58.90261 13.60114 35489 ft 463 kts 105°
2026-05-08 17:42 58.89466 13.66145 35768 ft 462 kts 105°
2026-05-08 17:42 58.88680 13.72089 36004 ft 463 kts 105°
2026-05-08 17:43 58.87875 13.78147 36249 ft 463 kts 105°
2026-05-08 17:43 58.87071 13.84178 36505 ft 463 kts 105°
2026-05-08 17:43 58.86263 13.90211 36758 ft 463 kts 105°
2026-05-08 17:43 58.85454 13.96227 36973 ft 464 kts 105°
2026-05-08 17:44 58.84640 14.02254 37185 ft 464 kts 105°
2026-05-08 17:44 58.83820 14.08309 37278 ft 464 kts 105°
2026-05-08 17:44 58.82180 14.20339 37284 ft 462 kts 106°
2026-05-08 17:45 58.80545 14.32248 37279 ft 462 kts 106°
2026-05-08 17:45 58.78891 14.44201 37285 ft 461 kts 106°
2026-05-08 17:46 58.77229 14.56117 37291 ft 461 kts 106°
2026-05-08 17:46 58.75551 14.68056 37287 ft 461 kts 106°
2026-05-08 17:47 58.73866 14.79960 37294 ft 460 kts 106°
2026-05-08 17:47 58.72458 14.89837 37295 ft 460 kts 106°
2026-05-08 17:48 58.70479 15.03619 37304 ft 460 kts 107°
2026-05-08 17:48 58.68766 15.15453 37302 ft 460 kts 107°
2026-05-08 17:49 58.67042 15.27278 37308 ft 459 kts 107°
2026-05-08 17:49 58.65304 15.39113 37317 ft 459 kts 107°
2026-05-08 17:50 58.63557 15.50922 37317 ft 459 kts 107°
2026-05-08 17:50 58.61801 15.62704 37318 ft 459 kts 107°
2026-05-08 17:51 58.60047 15.74391 37320 ft 458 kts 107°
2026-05-08 17:51 58.58271 15.86146 37323 ft 458 kts 107°
2026-05-08 17:52 58.56484 15.97886 37342 ft 458 kts 108°
2026-05-08 17:53 58.53787 16.15455 37342 ft 458 kts 108°
2026-05-08 17:53 58.51991 16.27051 37355 ft 457 kts 108°
2026-05-08 17:54 58.50173 16.38715 37351 ft 457 kts 108°
2026-05-08 17:54 58.48343 16.50371 37347 ft 456 kts 108°
2026-05-08 17:55 58.46506 16.61993 37349 ft 456 kts 108°
2026-05-08 17:55 58.44663 16.73576 37355 ft 456 kts 108°
2026-05-08 17:56 58.42808 16.85157 37349 ft 456 kts 109°
2026-05-08 17:56 58.40952 16.96665 37349 ft 455 kts 109°
2026-05-08 17:57 58.39078 17.08211 37346 ft 456 kts 109°
2026-05-08 17:57 58.37193 17.19748 37347 ft 455 kts 109°
2026-05-08 17:58 58.35299 17.31263 37346 ft 455 kts 109°
2026-05-08 17:58 58.33409 17.42680 37349 ft 455 kts 109°
2026-05-08 17:59 58.31484 17.54232 37345 ft 455 kts 109°
2026-05-08 17:59 58.29577 17.65606 37352 ft 454 kts 110°
2026-05-08 18:00 58.27647 17.77036 37348 ft 454 kts 110°
2026-05-08 18:00 58.27004 17.80831 37346 ft 454 kts 110°
2026-05-08 18:01 58.26140 17.85921 37340 ft 453 kts 110°
2026-05-08 18:02 58.24526 17.95382 37352 ft 453 kts 110°
2026-05-08 18:02 58.22244 18.08672 37346 ft 453 kts 110°
2026-05-08 18:03 58.20295 18.19953 37346 ft 453 kts 110°
2026-05-08 18:03 58.18321 18.31300 37347 ft 453 kts 110°
2026-05-08 18:04 58.16335 18.42648 37346 ft 453 kts 110°
2026-05-08 18:04 58.14342 18.53966 37340 ft 453 kts 111°
2026-05-08 18:05 58.12342 18.65256 37341 ft 453 kts 111°
2026-05-08 18:05 58.10344 18.76469 37339 ft 452 kts 111°
2026-05-08 18:06 58.08326 18.87725 37343 ft 452 kts 111°
2026-05-08 18:06 58.06295 18.98982 37341 ft 452 kts 111°
2026-05-08 18:07 58.04596 19.08345 37338 ft 452 kts 111°
2026-05-08 18:07 58.02206 19.21445 37332 ft 452 kts 111°
2026-05-08 18:08 58.00493 19.30777 37328 ft 452 kts 112°
2026-05-08 18:08 57.98423 19.41989 37335 ft 452 kts 112°
2026-05-08 18:09 57.96346 19.53174 37328 ft 452 kts 112°
2026-05-08 18:09 57.94255 19.64371 37323 ft 452 kts 112°
2026-05-08 18:10 57.92222 19.75198 37328 ft 452 kts 112°
2026-05-08 18:10 57.90113 19.86358 37328 ft 453 kts 112°
2026-05-08 18:11 57.87995 19.97503 37328 ft 453 kts 112°
2026-05-08 18:11 57.85864 20.08658 37323 ft 453 kts 112°
2026-05-08 18:12 57.83408 20.19445 37288 ft 446 kts 126°
2026-05-08 18:12 57.80292 20.29574 37101 ft 448 kts 122°
2026-05-08 18:13 57.78822 20.34626 36989 ft 447 kts 122°
2026-05-08 18:13 57.77323 20.39798 36889 ft 447 kts 122°
2026-05-08 18:13 57.74377 20.49954 36688 ft 445 kts 122°
2026-05-08 18:14 57.72898 20.55039 36587 ft 445 kts 122°
2026-05-08 18:14 57.71415 20.60128 36483 ft 444 kts 122°
2026-05-08 18:14 57.68460 20.70238 36240 ft 439 kts 122°
2026-05-08 18:15 57.66996 20.75222 35617 ft 438 kts 123°
2026-05-08 18:15 57.65533 20.80200 35077 ft 435 kts 123°
2026-05-08 18:15 57.64101 20.85064 34503 ft 429 kts 124°
2026-05-08 18:15 57.62670 20.89915 33570 ft 424 kts 124°
2026-05-08 18:16 57.61318 20.94491 32373 ft 426 kts 124°
2026-05-08 18:16 57.59888 20.99314 31743 ft 422 kts 123°
2026-05-08 18:16 57.58493 21.04010 31583 ft 408 kts 123°
2026-05-08 18:16 57.57105 21.08671 31217 ft 412 kts 123°
2026-05-08 18:17 57.55708 21.13358 30705 ft 414 kts 123°
2026-05-08 18:17 57.54308 21.18046 30211 ft 413 kts 123°
2026-05-08 18:17 57.52930 21.22647 29708 ft 411 kts 122°
2026-05-08 18:17 57.51519 21.27351 29246 ft 409 kts 122°
2026-05-08 18:18 57.50152 21.31897 28804 ft 407 kts 122°
2026-05-08 18:18 57.48773 21.36480 28364 ft 405 kts 122°
2026-05-08 18:18 57.47397 21.41039 27916 ft 403 kts 122°
2026-05-08 18:18 57.46023 21.45581 27469 ft 401 kts 122°
2026-05-08 18:19 57.44661 21.50077 27028 ft 398 kts 122°
2026-05-08 18:19 57.43300 21.54563 26595 ft 396 kts 121°
2026-05-08 18:19 57.41964 21.58957 26170 ft 394 kts 121°
2026-05-08 18:19 57.40619 21.63370 25743 ft 392 kts 121°
2026-05-08 18:20 57.39275 21.67775 25314 ft 393 kts 121°
2026-05-08 18:20 57.37905 21.72253 24830 ft 404 kts 121°
2026-05-08 18:20 57.36511 21.76804 24409 ft 408 kts 121°
2026-05-08 18:20 57.35107 21.81378 23981 ft 409 kts 121°
2026-05-08 18:21 57.33700 21.85952 23496 ft 407 kts 120°
2026-05-08 18:21 57.32303 21.90487 23020 ft 404 kts 120°
2026-05-08 18:21 57.30931 21.94929 22590 ft 401 kts 120°
2026-05-08 18:21 57.29551 21.99390 22165 ft 398 kts 120°
2026-05-08 18:22 57.28177 22.03823 21727 ft 395 kts 120°
2026-05-08 18:22 57.26813 22.08217 21297 ft 392 kts 120°
2026-05-08 18:22 57.25462 22.12557 20869 ft 389 kts 120°
2026-05-08 18:22 57.24111 22.16892 20455 ft 386 kts 120°
2026-05-08 18:23 57.22772 22.21183 20036 ft 384 kts 119°
2026-05-08 18:23 57.21441 22.25439 19616 ft 382 kts 119°
2026-05-08 18:23 57.20116 22.29665 19200 ft 377 kts 119°
2026-05-08 18:23 57.18816 22.33806 18803 ft 368 kts 119°
2026-05-08 18:24 57.17570 22.37766 18416 ft 354 kts 119°
2026-05-08 18:24 57.16354 22.41626 17992 ft 342 kts 118°
2026-05-08 18:24 57.15172 22.45371 17597 ft 336 kts 119°
2026-05-08 18:24 57.14003 22.49074 17212 ft 333 kts 119°
2026-05-08 18:25 57.12837 22.52755 16850 ft 331 kts 119°
2026-05-08 18:25 57.11680 22.56407 16489 ft 329 kts 119°
2026-05-08 18:25 57.10530 22.60029 16132 ft 327 kts 119°
2026-05-08 18:25 57.09390 22.63615 15992 ft 324 kts 119°
2026-05-08 18:26 57.08249 22.67199 15762 ft 325 kts 119°
2026-05-08 18:26 57.07105 22.70786 15423 ft 324 kts 119°
2026-05-08 18:26 57.05969 22.74343 15060 ft 323 kts 119°
2026-05-08 18:26 57.04832 22.77899 14690 ft 322 kts 119°
2026-05-08 18:27 57.03711 22.81398 14306 ft 321 kts 119°
2026-05-08 18:27 57.02947 22.83779 14038 ft 320 kts 119°
2026-05-08 18:27 57.01457 22.88417 13472 ft 316 kts 119°
2026-05-08 18:27 57.00346 22.91870 13081 ft 313 kts 119°
2026-05-08 18:28 56.99240 22.95303 12705 ft 311 kts 119°
2026-05-08 18:28 56.98142 22.98706 12335 ft 310 kts 119°
2026-05-08 18:28 56.97047 23.02093 11965 ft 309 kts 119°
2026-05-08 18:28 56.95955 23.05469 11595 ft 307 kts 119°
2026-05-08 18:29 56.94868 23.08825 11218 ft 305 kts 119°
2026-05-08 18:29 56.93785 23.12159 10853 ft 302 kts 119°
2026-05-08 18:29 56.92716 23.15452 10568 ft 297 kts 119°
2026-05-08 18:29 56.91664 23.18683 10415 ft 296 kts 119°
2026-05-08 18:30 56.90604 23.21936 10079 ft 298 kts 119°
2026-05-08 18:30 56.89542 23.25189 9672 ft 297 kts 119°
2026-05-08 18:30 56.88499 23.28380 9287 ft 293 kts 119°
2026-05-08 18:30 56.87459 23.31561 8906 ft 290 kts 119°
2026-05-08 18:31 56.86426 23.34715 8542 ft 288 kts 119°
2026-05-08 18:31 56.85398 23.37849 8189 ft 287 kts 120°
2026-05-08 18:31 56.84375 23.40962 7823 ft 283 kts 120°
2026-05-08 18:31 56.83452 23.43766 7502 ft 274 kts 120°
2026-05-08 18:32 56.82610 23.46326 7215 ft 267 kts 120°
2026-05-08 18:32 56.81666 23.49189 6885 ft 259 kts 120°
2026-05-08 18:32 56.80745 23.51981 6554 ft 255 kts 120°
2026-05-08 18:32 56.79842 23.54714 6212 ft 254 kts 120°
2026-05-08 18:33 56.78930 23.57472 5815 ft 254 kts 119°
2026-05-08 18:33 56.78131 23.59885 5436 ft 250 kts 119°
2026-05-08 18:33 56.77252 23.62537 5116 ft 238 kts 118°
2026-05-08 18:33 56.76413 23.65067 4803 ft 228 kts 118°
2026-05-08 18:34 56.75600 23.67516 4485 ft 223 kts 118°
2026-05-08 18:34 56.74820 23.69858 4309 ft 213 kts 118°
2026-05-08 18:34 56.74074 23.72100 4183 ft 201 kts 118°
2026-05-08 18:34 56.73362 23.74238 4082 ft 195 kts 117°
2026-05-08 18:35 56.72921 23.76557 3944 ft 194 kts 95°
2026-05-08 18:35 56.72775 23.79012 3818 ft 195 kts 94°
2026-05-08 18:35 56.72634 23.81505 3681 ft 199 kts 94°
2026-05-08 18:35 56.72498 23.84005 3544 ft 195 kts 94°
2026-05-08 18:36 56.72373 23.86398 3403 ft 185 kts 93°
2026-05-08 18:36 56.72256 23.88678 3264 ft 175 kts 92°
2026-05-08 18:36 56.72194 23.90840 3093 ft 168 kts 79°
2026-05-08 18:36 56.72744 23.92618 2858 ft 168 kts 40°
2026-05-08 18:37 56.73803 23.93574 2685 ft 172 kts 25°
2026-05-08 18:37 56.74951 23.94121 2569 ft 167 kts 17°
2026-05-08 18:37 56.76091 23.94429 2535 ft 166 kts 14°
2026-05-08 18:37 56.77240 23.94650 2500 ft 166 kts 12°
2026-05-08 18:38 56.78391 23.94840 2434 ft 167 kts 12°
2026-05-08 18:38 56.79535 23.95026 2243 ft 159 kts 13°
2026-05-08 18:38 56.80597 23.95198 2055 ft 151 kts 13°
2026-05-08 18:38 56.81648 23.95370 1851 ft 151 kts 13°
2026-05-08 18:39 56.82692 23.95540 1664 ft 150 kts 12°
2026-05-08 18:39 56.83714 23.95708 1459 ft 148 kts 13°
2026-05-08 18:39 56.84709 23.95868 1266 ft 138 kts 12°
2026-05-08 18:39 56.85644 23.96022 1080 ft 134 kts 12°
2026-05-08 18:40 56.86572 23.96178 895 ft 134 kts
2026-05-08 18:40 56.87504 23.96328 700 ft 133 kts
2026-05-08 18:40 56.88433 23.96487 517 ft 135 kts
2026-05-08 18:40 56.89383 23.96630 329 ft 137 kts
2026-05-08 18:41 56.90336 23.96771 152 ft 137 kts
2026-05-08 18:41 56.91244 23.96935 48 ft 112 kts
2026-05-08 18:41 56.91780 23.97018 45 ft 53 kts
2026-05-08 18:41 56.92147 23.97078 47 ft 52 kts
2026-05-08 18:42 56.92393 23.97175 46 ft 29 kts 25°
2026-05-08 18:42 56.92505 23.97305 47 ft 18 kts 35°
2026-05-08 18:42 56.92569 23.97386 45 ft 9 kts 35°
2026-05-08 18:42 56.92602 23.97432 44 ft 2 kts 48°
2026-05-08 18:43 56.92610 23.97468 47 ft 4 kts 74°
2026-05-08 18:43 56.92613 23.97512 45 ft 4 kts 96°
2026-05-08 18:43 56.92606 23.97526 47 ft 1 kts 148°
2026-05-08 18:43 56.92590 23.97537 47 ft 4 kts 166°
2026-05-08 18:44 56.92585 23.97538 47 ft 0 kts 172°
2026-05-08 18:44 56.92571 23.97540 47 ft 4 kts 178°
2026-05-08 18:45 56.92516 23.97533 45 ft 12 kts 185°
2026-05-08 18:45 56.92416 23.97515 47 ft 13 kts 186°
2026-05-08 18:45 56.92321 23.97492 44 ft 15 kts 185°
2026-05-08 18:45 56.92214 23.97474 45 ft 14 kts 185°
2026-05-08 18:46 56.92152 23.97479 47 ft 6 kts 144°
2026-05-08 18:46 56.92141 23.97532 47 ft 3 kts 99°
2026-05-08 18:46 56.92144 23.97564 47 ft 2 kts 51°
2026-05-08 18:46 56.92162 23.97579 45 ft 4 kts 11°
2026-05-08 18:47 56.92197 23.97584 47 ft 5 kts
2026-05-08 18:47 56.92199 23.97584 47 ft 0 kts